Minot, ND

2:29 AM CST on January 16, 2018 (GMT -0600)
Minot International

Weather History for KMOT - September, 2013

Change the Weather History Date:

Wednesday, September 25, 2013

  Actual Average Record
Temperature  
Mean Temperature 64 °F 54 °F  
Max Temperature 77 °F 65 °F 93 °F (1938)
Min Temperature 50 °F 42 °F 11 °F (1927)
Degree Days  
Heating Degree Days 1 12  
Month to date heating degree days 83 186  
Since 1 July heating degree days 152 257  
Cooling Degree Days 0 0  
Month to date cooling degree days 50 30  
Year to date cooling degree days 421 441  
Growing Degree Days 12 (Base 50)    
Moisture  
Dew Point 50 °F    
Average Humidity 59    
Maximum Humidity 80    
Minimum Humidity 38    
Precipitation  
Precipitation 0.00 in 0.05 in 0.93 in (1959)
Month to date precipitation 1.79 1.23  
Year to date precipitation 21.97 14.67  
Sea Level Pressure  
Sea Level Pressure 29.64 in    
Wind  
Wind Speed 11 mph (SE)    
Max Wind Speed 28 mph    
Max Gust Speed 33 mph    
Visibility 10 miles    
Events      
T = Trace of Precipitation, MM = Missing Value Source: NWS Daily Summary

Daily Weather History Graph

Daily Weather History Graph

Search for Another Location

Airport or City:

Trip Planner

Search our weather history database for the weather conditions in past years. The results will help you decide how hot, cold, wet, or windy it might be!

Date:

Astronomy

Sep. 25, 2013 Rise Set
Actual Time 7:36 AM CDT 7:36 PM CDT
Civil Twilight 7:05 AM CDT 8:07 PM CDT
Nautical Twilight 6:28 AM CDT 8:43 PM CDT
Astronomical Twilight 5:51 AM CDT 9:20 PM CDT
Moon 11:19 PM CDT (9/25) 2:08 PM CDT (9/25)
Length of Visible Light 13h 01m
Length of Day
11h 59m
Waning Gibbous, 64% of the Moon is Illuminated
Sep 25
Waning Gibbous
Sep 26
Last Quarter
Oct 4
New
Oct 11
First Quarter
Oct 18
Full

Hourly Weather History & Observations

Time (CDT) Temp. Dew Point Humidity Pressure Visibility Wind Dir Wind Speed Gust Speed Precip Events Conditions
12:54 AM 50.0 °F 45.0 °F 83% 29.80 in 10.0 mi Calm Calm - N/A   Clear
1:54 AM 51.1 °F 45.0 °F 80% 29.78 in 10.0 mi ESE 4.6 mph - N/A   Clear
2:54 AM 53.1 °F 46.0 °F 77% 29.76 in 10.0 mi ESE 9.2 mph - N/A   Clear
3:54 AM 54.0 °F 46.0 °F 75% 29.73 in 10.0 mi ESE 10.4 mph - N/A   Clear
4:54 AM 54.0 °F 46.9 °F 77% 29.72 in 10.0 mi ESE 6.9 mph - N/A   Clear
5:54 AM 55.9 °F 46.9 °F 72% 29.70 in 10.0 mi ESE 6.9 mph - N/A   Clear
6:54 AM 57.0 °F 46.0 °F 67% 29.68 in 10.0 mi ESE 11.5 mph - N/A   Clear
7:54 AM 57.0 °F 48.0 °F 72% 29.66 in 10.0 mi ESE 13.8 mph - N/A   Clear
8:54 AM 57.9 °F 50.0 °F 75% 29.67 in 10.0 mi ESE 9.2 mph - N/A   Clear
9:54 AM 62.1 °F 52.0 °F 70% 29.67 in 10.0 mi SE 15.0 mph 25.3 mph N/A   Clear
10:54 AM 63.0 °F 52.0 °F 67% 29.66 in 10.0 mi SSE 16.1 mph 26.5 mph N/A   Clear
11:54 AM 66.9 °F 52.0 °F 59% 29.65 in - SSE 8.1 mph - N/A   Clear
12:54 PM 71.1 °F 53.1 °F 53% 29.61 in 10.0 mi SSE 8.1 mph - N/A   Clear
1:54 PM 73.9 °F 50.0 °F 43% 29.58 in 10.0 mi SSE 17.3 mph 25.3 mph N/A   Clear
2:54 PM 75.0 °F 50.0 °F 41% 29.57 in 10.0 mi South 23.0 mph 33.4 mph N/A   Clear
3:54 PM 75.9 °F 48.9 °F 38% 29.55 in 10.0 mi SSE 19.6 mph 29.9 mph N/A   Clear
4:54 PM 75.9 °F 50.0 °F 40% 29.55 in 10.0 mi SSE 21.9 mph 29.9 mph N/A   Scattered Clouds
5:54 PM 73.0 °F 53.1 °F 49% 29.55 in 10.0 mi SE 3.5 mph - N/A   Overcast
6:54 PM 70.0 °F 53.1 °F 55% 29.56 in 10.0 mi SSE 5.8 mph - N/A   Overcast
7:54 PM 70.0 °F 53.1 °F 55% 29.57 in 10.0 mi Calm Calm - N/A   Overcast
8:54 PM 66.0 °F 54.0 °F 65% 29.58 in 10.0 mi ESE 5.8 mph - N/A   Partly Cloudy
9:54 PM 66.0 °F 54.0 °F 65% 29.58 in 10.0 mi ESE 8.1 mph - N/A   Mostly Cloudy
10:54 PM 66.0 °F 53.1 °F 63% 29.56 in 10.0 mi ESE 12.7 mph - N/A   Scattered Clouds
11:54 PM 66.0 °F 54.0 °F 65% 29.56 in 10.0 mi ESE 12.7 mph - N/A   Partly Cloudy